Home   Weather   India   Fatehpur   Past weeks
Flag for India

Past Weather in Fatehpur, Uttar Pradesh, India — Yesterday and Last 2 Weeks

Currently: 93 °F. Haze. (Weather station: Lucknow / Amausi, India). See more current weather

Past Weather in Fatehpur — Graph

°F

Fatehpur Temperature Yesterday

Maximum temperature yesterday: 99 °F (at 2:00 pm)
Minimum temperature yesterday: 81 °F (at 5:00 am)
Average temperature yesterday: 90 °F

High & Low Weather Summary for the Past Weeks

 TemperatureHumidityPressure
High109 °F (May 18, 1:30 pm)83% (May 12, 6:00 am)29.86 "Hg (May 12, 6:00 am)
Low73 °F (May 8, 5:00 am)14% (May 18, 3:30 pm)29.42 "Hg (May 19, 4:30 pm)
Average90 °F47%29.69 "Hg
* Reported May 7 9:30 am — May 22 10:00 am, Fatehpur. Weather by CustomWeather, © 2024

Note: Actual official high and low records may vary slightly from our data, if they occured in-between our weather recording intervals... More about our weather records

Fatehpur Weather History for the Previous 24 Hours

Scroll right to see more
 ConditionsComfort  
Time TempWeatherWind HumidityBarometerVisibility
10:00 am
Wed, May 22
93 °FHaze.14 mph49%29.71 "Hg3 mi
9:30 am91 °FHaze.13 mph52%29.71 "Hg3 mi
9:00 am90 °FHaze.14 mph55%29.68 "Hg3 mi
8:30 am90 °FHaze.12 mph55%29.68 "Hg3 mi
8:00 am88 °FHaze.12 mph62%29.68 "Hg3 mi
7:30 am86 °FHaze.12 mph66%29.68 "Hg3 mi
7:00 am86 °FHaze.10 mph66%29.68 "Hg3 mi
6:30 am86 °FHaze.9 mph66%29.65 "Hg3 mi
6:00 am84 °FHaze.9 mph70%29.65 "Hg3 mi
5:30 am84 °FHaze.8 mph70%29.65 "Hg3 mi
5:00 am84 °FHaze.9 mph70%29.65 "Hg3 mi
4:30 am86 °FHaze.8 mph66%29.62 "Hg3 mi
4:00 am86 °FHaze.9 mph66%29.62 "Hg3 mi
3:30 am86 °FHaze.9 mph66%29.62 "Hg3 mi
3:00 am86 °FHaze.12 mph66%29.62 "Hg3 mi
2:30 am88 °FHaze.12 mph59%29.62 "Hg3 mi
2:00 am88 °FHaze.12 mph59%29.62 "Hg3 mi
1:30 am88 °FHaze.9 mph59%29.62 "Hg3 mi
1:00 am88 °FHaze.8 mph59%29.62 "Hg3 mi
12:30 am90 °FHaze.9 mph52%29.62 "Hg3 mi
12:00 am90 °FHaze.8 mph52%29.62 "Hg3 mi
11:30 pm
Tue, May 21
90 °FHaze.8 mph52%29.62 "Hg3 mi
11:00 pm91 °FHaze.6 mph49%29.62 "Hg3 mi
10:30 pm91 °FHaze.9 mph49%29.62 "Hg3 mi
10:00 pm91 °FHaze.9 mph49%29.62 "Hg3 mi
9:30 pm93 °FHaze.9 mph44%29.59 "Hg3 mi
9:00 pm93 °FHaze.6 mph47%29.59 "Hg3 mi
8:30 pm93 °FHaze.6 mph47%29.59 "Hg3 mi
8:00 pm95 °FHaze.7 mph44%29.56 "Hg3 mi
7:30 pm95 °FHaze.6 mph44%29.56 "Hg3 mi
6:00 pm97 °FHaze.7 mph39%29.53 "Hg3 mi
5:30 pm99 °FHaze.7 mph37%29.53 "Hg3 mi
4:30 pm99 °FHaze.7 mph37%29.53 "Hg3 mi
4:00 pm99 °FHaze.7 mph37%29.53 "Hg3 mi
3:30 pm99 °FHaze.9 mph39%29.56 "Hg3 mi
3:00 pm99 °FHaze.6 mph39%29.56 "Hg3 mi
2:30 pm99 °FHaze.8 mph39%29.56 "Hg3 mi
2:00 pm99 °FHaze.12 mph37%29.59 "Hg3 mi
1:30 pm97 °FHaze.7 mph42%29.59 "Hg3 mi
1:00 pm97 °FHaze.9 mph39%29.62 "Hg3 mi
12:30 pm97 °FHaze.12 mph42%29.62 "Hg3 mi
12:00 pm95 °FHaze.9 mph41%29.65 "Hg3 mi
11:30 am93 °FHaze.9 mph44%29.65 "Hg3 mi
11:00 am93 °FHaze.9 mph44%29.65 "Hg3 mi
10:30 am91 °FHaze.10 mph46%29.65 "Hg3 mi
10:00 am90 °FHaze.9 mph49%29.68 "Hg3 mi
Weather by CustomWeather, © 2024

See weather overview